TELSTAR 19V (43562 NORAD) Tracking and Keplerian Element Data

This shows tracking and keplerian element data for the satellite.

Feedback or suggestion? Click here.




ElementValue
Catalog43562
NameTELSTAR 19V
Epoch Orbit261
Epoch Day78.55989656
Epoch Year2019
RAAN159.4419
Inclination0.0129
Eccentricity1.38E-05
Argument of Perigee113.6699
Mean Anonmoly42.256
Mean Motion1.00271373
Decay Rate-3.04E-06
L11 43562U 18059A 19078.55989656 -.00000304 00000-0 00000-0 0 9999
L22 43562 0.0129 159.4419 0000138 113.6699 42.2560 1.00271373 2616

Live tracking and technical data element details for TELSTAR 19V (NORAD 43562). TELSTAR 19V can be tracked NOW for your location showing map with azimuth and elevation plus other details from your city location.

Track the satellite on the map from your city or location and see movement details for azimuth, elevation, latitude, longitude, range, height, and movement on the map or in text.







IsCatalogInMostPopularTable: catalog: 43562, numindb: 313
Update: records affected: 1



GetName: 43562 TELSTAR 19V

Hit Count: updated at: Thu, 21 Mar 2019 02:07:41 GMT